Location: Rancho Del Sol Observatory
(38.7214°N, 120.6350°W)
Time: 20:48:53
(UTC-08:00)

A-11 Canister half - Pass Details

Date: 29 January 2020
Orbit: 1517 x 1683 km, 47.2° (Epoch: 16 February)

Event Time Altitude Azimuth Distance (km) Brightness Sun altitude
Rises 07:26:57 0° 285° (WNW) 4,664 10.9 2.0°
Reaches altitude 10° 07:32:48 10° 256° (WSW) 3,693 10.6 3.0°
Maximum altitude 07:35:40 12° 238° (WSW) 3,564 10.6 3.5°
Drops below altitude 10° 07:38:33 10° 219° (SW) 3,714 10.9 4.0°
Sets 07:44:34 0° 191° (S) 4,730 11.8 5.1°
